Swayam (41607 NORAD) Tracking and Keplerian Element Data

This shows tracking and keplerian element data for the satellite.

Feedback or suggestion? Click here.




ElementValue
Catalog41607
NameSwayam
Epoch Orbit13204
Epoch Day312.39069179
Epoch Year2018
RAAN13.2737
Inclination97.397
Eccentricity0.0015348
Argument of Perigee92.8542
Mean Anonmoly267.4451
Mean Motion15.22654894
Decay Rate1.683E-05
L11 41607U 16040J 18312.39069179 .00001683 00000-0 75134-4 0 9990
L22 41607 097.3970 013.2737 0015348 092.8542 267.4451 15.22654894132044

Live tracking and technical data element details for Swayam (NORAD 41607). Swayam can be tracked NOW for your location showing map with azimuth and elevation plus other details from your city location.

Track the satellite on the map from your city or location and see movement details for azimuth, elevation, latitude, longitude, range, height, and movement on the map or in text.







IsCatalogInMostPopularTable: catalog: 41607, numindb: 113
Update: records affected: 1



GetName: 41607 Swayam

Hit Count: updated at: Mon, 12 Nov 2018 17:31:47 GMT